DW7099 Weather Reports


time (UTC)temp
C
wind
direction
speed
KPH
gust
KPH
rain 1hr
cm
rain 24hr
cm
rain mn
cm
humidity
%
barometer
mb
20260510162224 25 61 0.0 3.2 0.00 0.00 0.00 48 1013.2
20260510161723 25 111 0.0 3.2 0.00 0.00 0.00 47 1013.3
20260510161224 25 0 1.6 3.2 0.00 0.00 0.00 46 1013.3
20260510160709 25 72 1.6 3.2 0.00 0.00 0.00 46 1013.3
20260510160209 25 49 0.0 3.2 0.00 0.00 0.00 47 1013.4
20260510155918 25 8 0.0 3.2 0.00 0.00 0.00 50 1013.4
20260510155154 25 292 0.0 3.2 0.00 0.00 0.00 49 1013.4
20260510154637 25 347 0.0 3.2 0.00 0.00 0.00 51 1013.5
20260510154139 25 302 0.0 3.2 0.00 0.00 0.00 49 1013.5
20260510153638 25 135 0.0 1.6 0.00 0.00 0.00 52 1013.5
20260510153138 24 0 0.0 1.6 0.00 0.00 0.00 49 1013.5
20260510152638 24 307 0.0 1.6 0.00 0.00 0.00 53 1013.6
20260510152138 23 0 0.0 1.6 0.00 0.00 0.00 49 1013.6
20260510151638 23 0 1.6 3.2 0.00 0.00 0.00 55 1013.7
20260510151138 23 24 1.6 3.2 0.00 0.00 0.00 54 1013.8
20260510150903 23 93 1.6 3.2 0.00 0.00 0.00 55 1013.8
20260510150138 23 40 1.6 3.2 0.00 0.00 0.00 55 1013.8
20260510145638 23 0 1.6 3.2 0.00 0.00 0.00 56 1013.7
20260510145401 23 23 1.6 3.2 0.00 0.00 0.00 56 1013.7
20260510144138 22 193 1.6 3.2 0.00 0.00 0.00 57 1013.7
20260510143638 22 261 1.6 3.2 0.00 0.00 0.00 57 1013.6
20260510143138 22 67 1.6 3.2 0.00 0.00 0.00 58 1013.6
20260510142829 22 181 0.0 1.6 0.00 0.00 0.00 58 1013.6
20260510142111 21 95 0.0 3.2 0.00 0.00 0.00 58 1013.6
20260510141611 21 79 0.0 3.2 0.00 0.00 0.00 63 1013.5
20260510141110 21 0 0.0 0.0 0.00 0.00 0.00 62 1013.4
20260510140610 21 0 0.0 1.6 0.00 0.00 0.00 62 1013.4
20260510135610 20 0 0.0 1.6 0.00 0.00 0.00 66 1013.5
20260510135110 20 0 0.0 1.6 0.00 0.00 0.00 67 1013.5
20260510134610 20 0 0.0 1.6 0.00 0.00 0.00 67 1013.4
20260510134111 20 0 0.0 1.6 0.00 0.00 0.00 70 1013.4
20260510133610 20 0 0.0 0.0 0.00 0.00 0.00 70 1013.4
20260510133110 19 0 0.0 0.0 0.00 0.00 0.00 72 1013.5
20260510132610 19 0 0.0 0.0 0.00 0.00 0.00 71 1013.6
20260510132111 18 0 0.0 1.6 0.00 0.00 0.00 72 1013.7
20260510131556 18 0 0.0 1.6 0.00 0.00 0.00 76 1013.7
20260510131056 18 0 0.0 1.6 0.00 0.00 0.00 76 1013.6
20260510130556 18 0 0.0 1.6 0.00 0.00 0.00 78 1013.5
20260510125557 17 0 0.0 1.6 0.00 0.00 0.00 85 1013.3
20260510125056 16 0 0.0 1.6 0.00 0.00 0.00 87 1013.4
20260510124540 16 0 0.0 0.0 0.00 0.00 0.00 87 1013.3
20260510124257 16 0 0.0 1.6 0.00 0.00 0.00 89 1013.3
20260510123540 15 0 0.0 1.6 0.00 0.00 0.00 91 1013.3
20260510123040 15 0 0.0 0.0 0.00 0.00 0.00 94 1013.3
20260510122540 15 0 0.0 1.6 0.00 0.00 0.00 95 1013.2
20260510122041 14 103 0.0 1.6 0.00 0.00 0.00 96 1013.1
20260510121540 14 0 0.0 1.6 0.00 0.00 0.00 96 1013.0
20260510121027 13 0 0.0 3.2 0.00 0.00 0.00 96 1012.9
20260510120749 13 0 0.0 3.2 0.00 0.00 0.00 95 1012.9
20260510120248 13 52 0.0 1.6 0.00 0.00 0.00 96 1012.9
20260510115527 13 59 0.0 1.6 0.00 0.00 0.00 96 1012.8
20260510115027 12 61 0.0 1.6 0.00 0.00 0.00 96 1012.8
20260510114527 12 0 0.0 1.6 0.00 0.00 0.00 96 1012.7
20260510114027 12 0 0.0 1.6 0.00 0.00 0.00 96 1012.7
20260510113528 12 49 0.0 1.6 0.00 0.00 0.00 96 1012.6
20260510113028 12 0 0.0 0.0 0.00 0.00 0.00 96 1012.6
20260510112527 12 171 0.0 0.0 0.00 0.00 0.00 97 1012.4
20260510112027 12 0 0.0 0.0 0.00 0.00 0.00 96 1012.3
20260510111527 11 0 0.0 1.6 0.00 0.00 0.00 96 1012.2
20260510111027 11 0 0.0 1.6 0.00 0.00 0.00 96 1012.1
20260510110528 11 49 0.0 1.6 0.00 0.00 0.00 96 1012.1
20260510110028 11 0 0.0 1.6 0.00 0.00 0.00 96 1012.1
20260510105513 11 55 0.0 1.6 0.00 0.00 0.00 96 1012.0
20260510105013 11 0 0.0 1.6 0.00 0.00 0.00 96 1011.9
20260510104458 11 67 0.0 1.6 0.00 0.00 0.00 96 1011.9
20260510104225 11 81 0.0 0.0 0.00 0.00 0.00 96 1011.9
20260510103458 11 0 0.0 0.0 0.00 0.00 0.00 96 1011.8
20260510102959 11 0 0.0 1.6 0.00 0.00 0.00 96 1011.8
20260510102458 12 0 0.0 1.6 0.00 0.00 0.00 96 1011.8
20260510101958 12 0 0.0 1.6 0.00 0.00 0.00 96 1011.7
20260510101729 12 47 0.0 1.6 0.00 0.00 0.00 96 1011.6
20260510100959 12 0 0.0 0.0 0.00 0.00 0.00 96 1011.6
20260510100458 12 0 0.0 0.0 0.00 0.00 0.00 96 1011.6
20260510095959 12 0 0.0 0.0 0.00 0.00 0.00 96 1011.4
20260510095459 12 0 0.0 0.0 0.00 0.00 0.00 96 1011.2
20260510094959 12 0 0.0 0.0 0.00 0.00 0.00 96 1011.1
20260510094459 12 0 0.0 0.0 0.00 0.00 0.00 96 1011.1
20260510093959 12 0 0.0 1.6 0.00 0.00 0.00 96 1011.0
20260510093443 12 0 0.0 1.6 0.00 0.00 0.00 96 1010.9
20260510092943 12 56 0.0 0.0 0.00 0.00 0.00 96 1010.9
20260510092443 12 0 0.0 0.0 0.00 0.00 0.00 95 1010.9
20260510091942 13 0 0.0 0.0 0.00 0.00 0.00 95 1011.0
20260510091658 13 0 0.0 0.0 0.00 0.00 0.00 96 1010.9
20260510091206 13 0 0.0 0.0 0.00 0.00 0.00 96 1010.8
20260510090443 13 0 0.0 0.0 0.00 0.00 0.00 96 1010.8
20260510085943 13 0 0.0 0.0 0.00 0.00 0.00 95 1010.8
20260510085443 13 0 0.0 0.0 0.00 0.00 0.00 95 1010.7
20260510084943 13 0 0.0 0.0 0.00 0.00 0.00 95 1010.6
20260510084443 13 0 0.0 1.6 0.00 0.00 0.00 95 1010.6
20260510083943 13 72 0.0 1.6 0.00 0.00 0.00 95 1010.6
20260510083701 13 0 0.0 0.0 0.00 0.00 0.00 95 1010.7
20260510082943 13 0 0.0 0.0 0.00 0.00 0.00 95 1010.7
20260510081929 14 0 0.0 1.6 0.00 0.00 0.00 95 1010.7
20260510081659 14 0 0.0 0.0 0.00 0.00 0.00 95 1010.7
20260510080930 14 0 0.0 0.0 0.00 0.00 0.00 95 1010.6
20260510080647 14 0 0.0 0.0 0.00 0.00 0.00 94 1010.6
20260510075930 14 0 0.0 1.6 0.00 0.00 0.00 94 1010.5
20260510075430 15 0 0.0 3.2 0.00 0.00 0.00 94 1010.5
20260510074930 15 0 0.0 3.2 0.00 0.00 0.00 94 1010.5
20260510074431 15 0 0.0 1.6 0.00 0.00 0.00 94 1010.5
20260510074149 15 0 0.0 1.6 0.00 0.00 0.00 94 1010.4
20260510073431 15 82 0.0 1.6 0.00 0.00 0.00 93 1010.3
20260510072931 15 0 0.0 0.0 0.00 0.00 0.00 93 1010.4
20260510072431 15 0 0.0 0.0 0.00 0.00 0.00 93 1010.3
20260510071931 15 0 0.0 0.0 0.00 0.00 0.00 92 1010.3
20260510071416 15 0 0.0 0.0 0.00 0.00 0.00 92 1010.3
20260510070916 15 0 0.0 0.0 0.00 0.00 0.00 92 1010.3
20260510070633 15 0 0.0 0.0 0.00 0.00 0.00 92 1010.4
20260510065916 15 0 0.0 0.0 0.00 0.00 0.00 92 1010.3
20260510064916 16 0 0.0 0.0 0.00 0.00 0.00 91 1010.3
20260510064416 16 0 0.0 0.0 0.00 0.00 0.00 91 1010.4
20260510063917 16 0 0.0 1.6 0.00 0.00 0.00 91 1010.3
20260510063634 16 0 0.0 1.6 0.00 0.00 0.00 91 1010.3
20260510062917 16 0 0.0 1.6 0.00 0.00 0.00 92 1010.3
20260510062417 16 0 0.0 0.0 0.00 0.00 0.00 91 1010.3
20260510061917 16 0 0.0 1.6 0.00 0.00 0.00 91 1010.4
20260510061417 16 0 0.0 1.6 0.00 0.00 0.00 91 1010.4
20260510060902 16 114 0.0 1.6 0.00 0.00 0.00 91 1010.5
20260510060402 16 0 0.0 1.6 0.00 0.00 0.00 90 1010.5
20260510060123 16 0 0.0 1.6 0.00 0.00 0.00 91 1010.6
20260510055346 15 0 0.0 1.6 0.00 0.00 0.00 91 1010.6
20260510054846 15 0 0.0 0.0 0.00 0.00 0.00 90 1010.5
20260510054602 15 0 0.0 0.0 0.00 0.00 0.00 90 1010.5
20260510054105 15 0 0.0 0.0 0.00 0.00 0.00 90 1010.6
20260510053346 15 0 0.0 0.0 0.00 0.00 0.00 90 1010.7
20260510052846 15 89 0.0 0.0 0.00 0.00 0.00 90 1010.7
20260510052346 15 0 0.0 1.6 0.00 0.00 0.00 90 1010.6
20260510052106 15 0 0.0 1.6 0.00 0.00 0.00 90 1010.6
20260510051603 15 0 0.0 1.6 0.00 0.00 0.00 90 1010.7
20260510051117 15 0 0.0 1.6 0.00 0.00 0.00 89 1010.6
20260510050346 16 0 0.0 0.0 0.00 0.00 0.00 88 1010.6
20260510045846 16 0 0.0 0.0 0.00 0.00 0.00 88 1010.7
20260510045346 16 0 0.0 0.0 0.00 0.00 0.00 88 1010.6
20260510044819 16 0 0.0 0.0 0.00 0.00 0.00 88 1010.6
20260510044303 16 0 0.0 0.0 0.00 0.00 0.00 88 1010.6
20260510044015 16 0 0.0 1.6 0.00 0.00 0.00 88 1010.7
20260510043246 16 53 0.0 1.6 0.00 0.00 0.00 87 1010.7
20260510042746 16 0 0.0 0.0 0.00 0.00 0.00 88 1010.7
20260510042247 16 0 0.0 0.0 0.00 0.00 0.00 87 1010.6
20260510042011 16 0 0.0 1.6 0.00 0.00 0.00 87 1010.6
20260510041510 16 44 0.0 1.6 0.00 0.00 0.00 87 1010.6
20260510040747 16 0 0.0 0.0 0.00 0.00 0.00 87 1010.5
20260510040247 16 0 0.0 1.6 0.00 0.00 0.00 86 1010.5
20260510035747 16 49 0.0 1.6 0.00 0.00 0.00 86 1010.5
20260510035248 16 0 0.0 1.6 0.00 0.00 0.00 86 1010.4
20260510034747 16 0 0.0 1.6 0.00 0.00 0.00 86 1010.4
20260510034248 16 0 0.0 1.6 0.00 0.00 0.00 85 1010.3
20260510033748 16 0 0.0 1.6 0.00 0.00 0.00 85 1010.3
20260510033247 16 0 0.0 1.6 0.00 0.00 0.00 85 1010.3
20260510032734 16 70 0.0 1.6 0.00 0.00 0.00 84 1010.3
20260510032235 16 0 0.0 1.6 0.00 0.00 0.00 84 1010.2
20260510031734 16 49 0.0 1.6 0.00 0.00 0.00 83 1010.2
20260510031234 17 0 0.0 0.0 0.00 0.00 0.00 83 1010.2
20260510030734 17 0 0.0 1.6 0.00 0.00 0.00 83 1010.2
20260510030234 17 0 0.0 1.6 0.00 0.00 0.00 82 1010.2
20260510030005 17 73 0.0 1.6 0.00 0.00 0.00 82 1010.1
20260510025220 17 41 0.0 1.6 0.00 0.00 0.00 82 1010.2
20260510024719 17 0 0.0 1.6 0.00 0.00 0.00 81 1010.1
20260510024220 17 20 0.0 1.6 0.00 0.00 0.00 81 1010.1
20260510023719 17 27 0.0 1.6 0.00 0.00 0.00 81 1010.0
20260510023219 17 351 0.0 1.6 0.00 0.00 0.00 81 1010.0
20260510022705 17 28 0.0 1.6 0.00 0.00 0.00 82 1010.0
20260510022430 17 0 0.0 1.6 0.00 0.00 0.00 82 1009.9
20260510021925 17 37 0.0 1.6 0.00 0.00 0.00 81 1009.9
20260510021430 17 0 0.0 1.6 0.00 0.00 0.00 81 1009.8
20260510020928 17 0 0.0 0.0 0.00 0.00 0.00 81 1009.7
20260510020205 17 0 0.0 0.0 0.00 0.00 0.00 81 1009.7
20260510015705 17 0 0.0 1.6 0.00 0.00 0.00 80 1009.6
20260510015205 17 0 0.0 1.6 0.00 0.00 0.00 80 1009.5
20260510014705 17 0 0.0 0.0 0.00 0.00 0.00 80 1009.4
20260510014422 17 0 0.0 0.0 0.00 0.00 0.00 80 1009.3
20260510013705 17 0 0.0 0.0 0.00 0.00 0.00 80 1009.4
20260510013424 17 0 0.0 0.0 0.00 0.00 0.00 79 1009.4
20260510012927 17 0 0.0 0.0 0.00 0.00 0.00 79 1009.2
20260510012206 18 0 0.0 0.0 0.00 0.00 0.00 79 1009.2
20260510011706 18 0 0.0 0.0 0.00 0.00 0.00 77 1009.3
20260510011150 18 0 0.0 0.0 0.00 0.00 0.00 77 1009.2
20260510010149 18 0 0.0 0.0 0.00 0.00 0.00 77 1009.0
20260510005650 18 0 0.0 0.0 0.00 0.00 0.00 77 1008.9
20260510004651 18 0 0.0 0.0 0.00 0.00 0.00 75 1008.9
20260510004150 18 0 0.0 0.0 0.00 0.00 0.00 75 1008.9
20260510003921 19 0 0.0 0.0 0.00 0.00 0.00 74 1008.8
20260510003150 19 0 0.0 0.0 0.00 0.00 0.00 74 1008.7
20260510002650 20 0 0.0 0.0 0.00 0.00 0.00 74 1008.7
20260510002150 20 0 0.0 0.0 0.00 0.00 0.00 74 1008.6
20260510001650 20 0 0.0 0.0 0.00 0.00 0.00 72 1008.6
20260510001150 20 0 0.0 0.0 0.00 0.00 0.00 70 1008.5
20260510000920 20 0 0.0 1.6 0.00 0.00 0.00 69 1008.4
20260510000150 20 0 0.0 1.6 0.00 0.00 0.00 68 1008.3
20260509235637 21 35 0.0 1.6 0.00 0.00 0.00 67 1008.3
20260509235121 21 0 0.0 0.0 0.00 0.00 0.00 66 1008.3
20260509234623 21 0 0.0 1.6 0.00 0.00 0.00 65 1008.2
20260509233623 22 138 0.0 1.6 0.00 0.00 0.00 64 1008.0
20260509233122 22 0 0.0 1.6 0.00 0.00 0.00 63 1008.0
20260509232853 22 143 0.0 1.6 0.00 0.00 0.00 64 1008.1
20260509232123 22 0 0.0 1.6 0.00 0.00 0.00 60 1008.1
20260509231622 22 0 0.0 1.6 0.00 0.00 0.00 60 1008.1
20260509231122 22 0 0.0 1.6 0.00 0.00 0.00 59 1008.1
20260509230622 22 0 0.0 3.2 0.00 0.00 0.00 59 1008.1
20260509230122 22 0 0.0 3.2 0.00 0.00 0.00 58 1008.1
20260509225623 22 0 0.0 3.2 0.00 0.00 0.00 57 1008.0
20260509225328 22 0 0.0 3.2 0.00 0.00 0.00 57 1007.9
20260509224552 22 0 0.0 1.6 0.00 0.00 0.00 58 1007.9
20260509224052 22 0 0.0 1.6 0.00 0.00 0.00 57 1007.9
20260509223552 22 0 0.0 1.6 0.00 0.00 0.00 56 1008.0
20260509223312 22 0 0.0 3.2 0.00 0.00 0.00 56 1008.0
20260509222552 22 0 0.0 3.2 0.00 0.00 0.00 55 1008.0
20260509221551 23 93 1.6 3.2 0.00 0.00 0.00 54 1007.9
20260509221052 23 0 0.0 1.6 0.00 0.00 0.00 53 1007.8
20260509220552 23 0 0.0 1.6 0.00 0.00 0.00 54 1007.8
20260509220052 23 0 0.0 1.6 0.00 0.00 0.00 52 1007.9
20260509215552 23 59 1.6 3.2 0.00 0.00 0.00 54 1007.9
20260509215316 23 68 0.0 3.2 0.00 0.00 0.00 53 1007.8
20260509214552 23 56 0.0 1.6 0.00 0.00 0.00 54 1007.8
20260509214052 23 36 1.6 4.8 0.00 0.00 0.00 53 1007.7
20260509213039 23 270 1.6 4.8 0.00 0.00 0.00 51 1007.6
20260509212539 23 116 3.2 6.4 0.00 0.00 0.00 52 1007.6
20260509212039 23 88 3.2 6.4 0.00 0.00 0.00 53 1007.6
20260509211540 23 135 1.6 4.8 0.00 0.00 0.00 53 1007.6
20260509211039 23 0 1.6 3.2 0.00 0.00 0.00 50 1007.4
20260509210539 23 173 3.2 4.8 0.00 0.00 0.00 49 1007.4
20260509210039 23 282 3.2 4.8 0.00 0.00 0.00 50 1007.6
20260509205539 23 17 1.6 4.8 0.00 0.00 0.00 51 1007.6
20260509205024 23 62 3.2 4.8 0.00 0.00 0.00 49 1007.6
20260509204524 23 48 3.2 4.8 0.00 0.00 0.00 51 1007.6
20260509204025 23 55 3.2 4.8 0.00 0.00 0.00 52 1007.5
20260509203525 23 105 1.6 3.2 0.00 0.00 0.00 54 1007.5
20260509203025 23 285 1.6 3.2 0.00 0.00 0.00 58 1007.5
20260509202525 23 39 1.6 3.2 0.00 0.00 0.00 56 1007.6
20260509202025 22 79 1.6 3.2 0.00 0.00 0.00 55 1007.6
20260509201525 22 75 0.0 1.6 0.00 0.00 0.00 57 1007.7
20260509201025 22 94 0.0 3.2 0.00 0.00 0.00 56 1007.7
20260509200525 22 0 1.6 3.2 0.00 0.00 0.00 55 1007.8
20260509200025 22 0 1.6 3.2 0.00 0.00 0.00 55 1007.8
20260509195026 22 105 1.6 4.8 0.00 0.00 0.00 55 1008.0
20260509194526 22 98 1.6 3.2 0.00 0.00 0.00 56 1008.0
20260509194026 22 21 0.0 3.2 0.00 0.00 0.00 56 1008.1
20260509193011 22 177 1.6 3.2 0.00 0.00 0.00 53 1008.2
20260509192511 22 14 1.6 4.8 0.00 0.00 0.00 54 1008.3
20260509192010 23 78 1.6 4.8 0.00 0.00 0.00 53 1008.4
20260509191511 23 71 3.2 6.4 0.00 0.00 0.00 53 1008.4
20260509191011 22 35 1.6 6.4 0.00 0.00 0.00 52 1008.4
20260509190456 22 29 1.6 3.2 0.00 0.00 0.00 56 1008.5
20260509185955 22 87 1.6 4.8 0.00 0.00 0.00 55 1008.5
20260509185722 22 15 1.6 4.8 0.00 0.00 0.00 54 1008.6
20260509184455 22 0 1.6 6.4 0.00 0.00 0.00 53 1008.7
20260509183956 22 357 1.6 3.2 0.00 0.00 0.00 52 1008.7
20260509183456 22 197 1.6 4.8 0.00 0.00 0.00 53 1008.8
20260509182956 23 45 3.2 6.4 0.00 0.00 0.00 50 1008.9
20260509182454 23 232 3.2 6.4 0.00 0.00 0.00 51 1008.9
20260509181955 23 63 1.6 6.4 0.00 0.00 0.00 50 1009.0
20260509181717 23 18 1.6 3.2 0.00 0.00 0.00 51 1008.9
20260509180955 23 96 1.6 3.2 0.00 0.00 0.00 52 1009.0
20260509180455 22 88 1.6 6.4 0.00 0.00 0.00 52 1009.0
20260509175956 22 27 1.6 6.4 0.00 0.00 0.00 51 1009.1
20260509175715 22 119 1.6 3.2 0.00 0.00 0.00 52 1009.2
20260509174942 22 280 1.6 6.4 0.00 0.00 0.00 55 1009.2
20260509174700 22 71 3.2 6.4 0.00 0.00 0.00 53 1009.3
20260509173942 22 274 3.2 6.4 0.00 0.00 0.00 53 1009.4
20260509173442 22 86 1.6 6.4 0.00 0.00 0.00 53 1009.3
20260509172942 22 240 1.6 4.8 0.00 0.00 0.00 53 1009.2
20260509172704 22 87 1.6 6.4 0.00 0.00 0.00 53 1009.2
20260509171942 22 347 3.2 9.7 0.00 0.00 0.00 52 1009.2
20260509171433 22 133 3.2 9.7 0.00 0.00 0.00 52 1009.3
20260509170928 22 6 3.2 6.4 0.00 0.00 0.00 52 1009.4
20260509170427 22 40 1.6 3.2 0.00 0.00 0.00 53 1009.4
20260509165928 21 92 1.6 3.2 0.00 0.00 0.00 56 1009.7
20260509165633 21 258 1.6 3.2 0.00 0.00 0.00 55 1009.8
20260509164642 22 269 1.6 6.4 0.00 0.00 0.00 55 1010.1
20260509163913 22 356 1.6 6.4 0.00 0.00 0.00 55 1010.1
20260509163413 22 236 1.6 6.4 0.00 0.00 0.00 53 1010.3
20260509162914 22 307 1.6 8.0 0.00 0.00 0.00 51 1010.1